Temperature
11 10 10 11 12 12 12 12 12 13 14 13 12 12 13 14 15 14 15 14 14 13 13 12 12 11 11 11 11 11 11 11 11 11 11 11 11 11 11 11 11 11 11 11
11 10 11 12 12 12 12 11 11 13 14 13 12 12 13 14 14 15 14 14 14 13 12 12 11 11 11 10 10 10 10 10 10 10 10 10 10 11 10 10 10 11 11 11
11 12 12 12 11 11 11 11 11 12 12 12 11 11 13 14 14 14 14 14 13 13 12 11 11 11 10 10 10 10 10 10 10 10 10 10 10 10 10 10 10 10 10 10
11 12 12 11 11 11 10 12 11 11 10 9 11 9 12 13 13 13 13 13 13 12 12 11 10 10 10 10 10 10 9 9 9 9 9 9 9 9 9 9 9 9 10 10
11 11 11 10 11 11 11 11 11 10 9 9 10 9 10 13 12 12 12 13 12 12 11 11 10 10 9 9 9 9 9 9 9 9 9 9 9 9 9 9 9 9 9 9
10 11 11 11 11 11 11 10 10 9 9 8 9 9 10 12 13 13 12 13 12 11 11 10 10 9 9 9 9 9 9 8 8 8 8 8 8 8 8 8 8 9 9 8
10 10 10 10 10 10 9 9 8 8 8 8 11 11 11 13 13 13 12 12 11 11 10 10 9 9 9 9 9 8 8 8 8 8 8 8 8 8 8 8 8 8 8 8
10 10 10 10 10 9 9 9 8 8 9 10 11 10 11 13 13 13 12 12 11 10 10 9 9 9 9 8 8 8 8 8 8 8 8 8 8 8 8 7 7 8 8 8
9 10 11 10 10 10 9 9 10 8 8 8 9 12 12 13 12 12 11 11 10 10 10 9 9 8 8 8 8 8 8 8 8 8 7 7 7 7 7 7 7 7 7 7
9 9 9 10 9 9 9 10 8 7 7 8 10 11 11 11 11 10 10 10 10 10 9 9 8 8 8 8 8 8 7 7 7 7 7 7 7 7 7 7 7 7 7 7
9 7 8 8 8 8 8 8 8 8 8 7 8 10 12 11 11 10 10 10 10 9 9 8 8 8 8 7 7 7 7 7 7 7 7 7 6 6 6 6 6 6 7 7
8 7 7 8 9 9 9 8 8 6 7 7 7 8 12 11 11 10 10 10 10 9 8 8 8 7 7 7 7 6 6 6 6 6 6 6 6 6 6 6 6 6 6 6
7 6 6 7 7 7 7 8 8 7 7 6 6 8 11 10 10 10 10 10 9 9 8 8 7 7 6 6 6 6 6 6 6 6 6 6 6 6 6 5 5 6 6 6
7 5 5 6 7 6 6 6 7 6 5 6 7 8 9 10 9 9 9 9 9 8 8 7 7 6 6 6 5 5 5 5 5 6 6 5 5 5 5 5 5 5 5 5
5 4 5 6 7 7 6 6 6 6 6 6 7 8 9 9 9 9 9 9 8 8 7 7 6 6 5 5 5 5 5 5 5 5 5 5 5 5 5 5 5 5 5 5
4 4 4 5 6 6 6 6 6 6 6 6 7 7 9 9 9 9 9 9 8 7 7 6 6 5 5 5 4 4 4 4 4 4 4 4 4 4 4 4 4 4 4 4
3 3 4 4 5 5 4 6 6 6 7 7 6 7 8 8 8 8 8 8 8 7 6 6 5 5 4 4 4 4 4 4 4 4 4 4 4 3 3 4 4 3 3 3
3 3 3 3 4 3 6 8 8 7 8 8 8 8 8 8 8 8 8 7 7 6 6 5 5 4 4 4 4 3 3 3 3 3 3 3 3 3 3 3 3 3 3 3
3 3 3 3 3 4 6 7 7 6 6 8 7 7 7 8 7 7 7 7 6 6 5 5 4 4 4 3 3 3 3 3 3 3 2 2 2 2 2 2 2 2 2 3
3 3 2 3 3 3 6 7 8 7 5 7 7 6 7 6 4 4 6 6 5 5 5 4 4 3 3 3 3 3 2 2 2 2 2 2 2 2 2 2 2 2 2 2
2 2 2 2 3 3 6 6 6 4 4 6 7 6 6 5 4 5 5 5 4 4 4 4 3 3 3 2 2 2 2 2 2 1 1 1 1 1 2 2 2 2 2 2
2 2 2 2 2 3 5 5 4 4 6 6 6 6 5 5 5 5 4 4 4 3 3 3 3 2 2 2 2 2 1 1 1 1 1 1 1 1 1 1 1 1 1 1
3 3 3 3 3 5 5 5 5 6 5 5 5 5 5 4 4 4 4 3 3 3 3 2 2 2 2 1 1 1 1 1 1 1 1 0 0 0 0 0 1 1 1 1
3 4 3 3 3 5 5 5 5 5 5 4 4 4 4 3 3 3 3 2 2 2 2 2 2 1 1 1 1 1 1 0 0 0 -0 -0 -0 -0 -0 -0 -0 -0 -0 -0
3 2 2 2 3 4 5 5 5 4 4 4 3 3 3 3 2 2 2 2 1 1 1 1 1 1 0 0 0 0 -0 -0 -0 -1 -1 -1 -1 -1 -1 -1 -1 -1 -1 -1
2 2 2 2 3 3 3 4 4 3 3 3 2 2 2 2 1 1 1 1 1 0 0 0 0 -0 -0 -0 -0 -1 -1 -1 -1 -1 -2 -2 -2 -2 -2 -2 -1 -1 -1 -1
Wind_Speed
7 6 8 8 10 9 8 8 10 10 6 6 11 15 14 12 11 9 7 5 4 4 2 1 1 1 2 2 3 3 3 3 2 2 2 2 3 3 4 3 4 5 5 5
6 11 10 6 6 9 10 11 12 10 5 6 11 16 15 12 9 6 5 5 4 3 1 1 1 0 2 3 3 3 3 3 3 2 2 3 3 4 4 4 5 6 6 6
11 4 4 8 9 9 11 11 10 9 10 8 9 10 8 5 4 3 4 4 3 3 2 1 1 0 2 3 3 3 3 3 3 3 2 2 3 2 3 4 4 6 6 6
10 9 7 7 9 8 8 5 8 9 7 5 3 6 7 5 4 5 5 4 2 1 0 0 0 1 2 3 2 3 3 3 3 3 3 4 4 4 5 4 4 5 6 6
7 6 8 11 9 7 5 3 6 8 7 7 6 6 8 6 5 6 5 4 2 1 1 1 0 1 2 2 2 3 4 4 3 4 5 5 5 5 4 4 5 5 5 6
9 5 5 6 4 6 3 3 5 5 3 6 7 8 6 3 5 4 3 2 2 2 2 2 1 1 2 2 2 3 4 4 5 5 5 6 6 6 6 5 5 5 5 5
9 11 7 4 4 5 4 2 1 2 4 6 6 6 6 2 2 4 4 2 2 2 2 2 2 2 3 3 3 3 4 5 5 5 5 6 6 7 7 7 6 6 5 5
6 7 11 8 8 6 9 5 4 4 4 3 2 6 4 3 5 6 5 3 2 2 2 2 2 2 3 4 3 3 4 5 5 5 5 5 6 5 5 7 6 6 5 6
5 3 5 9 6 4 6 7 3 2 4 4 6 5 3 3 5 5 4 3 1 1 1 2 2 3 3 4 4 4 4 5 5 5 5 6 6 6 6 6 6 5 5 5
3 3 4 6 5 6 5 3 3 4 3 5 6 6 4 4 3 3 2 1 0 2 2 3 3 3 4 4 5 4 4 4 5 5 4 4 5 6 6 5 6 6 6 6
4 4 4 6 9 10 7 6 5 5 4 4 4 4 1 4 4 3 2 1 0 2 2 3 4 4 4 5 5 5 5 5 4 4 4 4 5 4 5 5 6 6 5 6
6 3 6 7 5 5 7 8 8 5 5 5 4 5 1 4 4 3 2 2 2 2 3 3 3 4 5 6 6 6 6 5 5 4 3 4 4 4 5 4 5 5 5 6
5 4 4 4 4 4 5 7 8 5 3 5 6 6 0 3 2 2 2 2 2 2 3 4 4 4 5 5 6 6 6 6 5 3 3 4 4 4 5 4 4 4 4 5
3 5 7 7 3 4 5 7 8 8 7 8 10 11 8 4 3 2 2 2 3 3 3 3 4 4 5 6 6 7 6 5 5 4 3 4 4 4 4 4 3 4 5 5
3 5 8 11 10 7 8 10 12 14 13 11 11 13 14 8 6 5 4 3 4 4 4 4 4 4 5 6 6 7 7 6 5 4 4 4 4 4 4 4 4 4 5 6
4 4 5 10 10 10 13 14 15 16 16 17 17 19 13 9 6 6 5 4 4 4 4 4 4 5 5 6 6 7 7 6 5 4 4 5 5 5 4 4 4 4 5 5
5 4 4 6 6 7 11 15 17 13 13 12 16 15 10 7 6 5 4 4 4 3 3 3 4 4 5 5 5 6 6 6 5 5 5 5 5 5 5 5 5 5 5 5
6 5 4 4 3 10 8 5 10 13 14 13 11 9 7 5 5 4 3 3 3 3 3 3 3 4 4 4 5 5 5 5 5 6 6 5 5 6 6 5 5 5 5 5
12 9 6 4 7 8 7 6 6 8 10 9 10 8 6 4 4 5 2 1 1 2 3 3 3 4 5 5 5 5 5 5 5 6 6 6 6 6 6 6 6 6 5 5
10 10 7 7 7 7 3 1 1 1 7 4 4 4 3 1 2 3 2 3 2 3 3 3 3 4 4 5 5 5 5 5 5 6 6 6 6 6 7 7 7 6 6 6
6 8 12 12 9 7 4 2 3 4 5 1 2 1 0 1 2 1 2 2 2 2 3 4 4 4 4 4 5 6 6 5 5 6 6 7 7 7 7 7 6 6 6 6
7 6 8 8 9 8 2 3 5 4 1 2 2 1 1 1 2 2 2 3 3 3 4 4 4 5 4 4 4 6 6 6 6 6 6 7 7 7 7 7 6 6 6 6
7 7 4 6 6 2 2 2 1 1 1 1 1 1 1 2 3 4 3 3 3 4 4 4 4 5 5 4 4 5 6 5 6 6 7 7 8 7 7 7 6 6 5 5
5 5 4 5 6 5 4 4 3 2 2 3 2 2 2 3 4 4 4 4 4 4 4 4 4 5 6 5 5 4 5 5 6 7 7 7 7 8 7 6 5 5 5 5
5 3 5 7 7 6 5 4 2 2 2 3 3 3 3 4 5 4 4 5 4 4 4 4 4 5 6 6 6 5 5 5 6 7 7 7 7 7 7 7 6 6 5 6
7 7 7 8 6 5 3 2 2 2 2 2 3 4 4 3 4 4 4 4 4 4 4 4 4 5 6 6 6 5 5 5 6 6 6 6 6 6 6 7 8 9 9 11
Wind_Direction
191 219 223 219 219 252 287 286 284 286 289 275 264 273 275 268 263 256 247 233 223 235 228 197 227 284 290 277 255 241 242 248 218 200 211 224 237 233 233 232 242 221 213 210
212 230 235 238 243 246 259 270 276 286 292 294 277 276 272 261 249 235 227 221 209 228 231 220 204 225 306 292 286 264 242 241 229 211 218 225 237 233 230 226 237 229 217 216
226 225 215 229 241 249 250 254 270 287 310 276 276 284 257 232 227 203 222 221 210 211 229 208 192 258 328 320 298 281 258 243 229 219 220 236 248 244 244 234 237 231 221 221
240 237 234 235 239 238 257 258 271 283 292 284 281 289 270 240 206 200 208 196 196 181 260 42 48 349 322 312 294 267 258 253 234 214 217 221 233 237 243 233 239 232 223 223
230 203 216 230 232 231 245 298 275 269 268 278 241 246 273 233 222 211 196 172 166 143 74 48 45 292 297 305 296 264 257 253 243 227 223 223 234 235 236 240 241 237 227 224
248 251 236 234 225 232 247 270 265 251 252 260 222 217 273 227 215 191 154 121 116 94 72 45 5 286 292 298 287 265 250 252 246 233 233 229 233 234 232 240 243 237 229 225
234 226 209 202 207 203 205 211 262 227 219 243 202 214 248 265 89 114 117 106 97 80 55 19 359 345 322 306 292 270 257 252 249 240 239 238 236 233 230 233 237 234 231 231
233 222 189 193 206 193 199 201 197 230 250 275 224 233 243 141 96 100 110 113 86 49 21 356 342 341 330 316 301 289 266 266 256 243 244 246 244 234 229 235 239 234 231 232
236 238 159 181 198 204 192 212 236 268 284 272 243 228 214 130 117 112 110 107 83 359 4 351 347 341 325 314 306 296 290 283 274 259 253 248 246 239 234 236 240 234 234 241
251 254 194 164 186 233 245 206 180 197 236 257 256 237 217 161 146 130 127 117 332 334 351 347 338 327 320 314 314 311 301 293 290 266 254 258 255 244 238 235 239 238 236 237
224 228 198 179 199 197 192 206 204 209 228 235 268 262 72 125 143 151 164 172 349 358 346 332 325 327 330 328 326 319 310 307 303 278 258 256 259 248 239 240 241 240 243 237
206 217 235 218 203 212 206 204 191 197 227 225 253 268 33 99 106 100 68 23 13 360 344 335 330 332 337 334 329 322 319 311 303 292 277 262 262 256 245 247 249 250 248 242
183 195 227 212 202 212 224 225 220 225 240 232 234 252 122 75 58 45 25 347 335 342 337 335 339 336 332 329 329 327 324 319 316 307 300 286 276 261 254 252 253 259 259 259
199 211 221 227 198 174 216 228 223 220 229 240 237 255 271 281 302 316 311 312 317 320 321 326 327 326 328 329 330 328 324 322 325 322 302 290 282 271 259 255 262 264 266 261
199 238 247 259 266 252 241 233 222 223 229 240 255 263 269 278 282 288 294 302 307 311 319 325 324 325 326 327 328 326 325 325 327 325 319 306 296 291 276 267 263 263 267 270
206 244 262 261 254 253 254 244 237 236 237 243 257 266 270 279 293 298 301 298 294 301 311 325 327 324 322 323 322 323 324 323 324 323 318 317 314 308 293 276 267 263 265 266
204 216 241 258 261 269 252 235 231 232 232 234 246 256 272 277 284 288 296 299 294 298 316 323 317 312 311 314 317 320 321 329 332 323 313 311 313 308 302 297 284 268 263 263
205 211 234 258 252 242 247 224 222 234 241 234 241 254 263 269 284 287 285 288 301 313 317 315 313 311 308 312 320 324 326 329 328 325 323 319 312 307 304 301 294 285 273 263
209 207 220 225 242 263 260 238 214 225 251 238 240 250 264 277 294 290 295 320 315 324 318 310 306 309 315 317 316 318 320 321 324 324 324 322 318 313 312 305 296 289 283 277
209 210 219 224 234 240 242 187 155 190 262 243 222 241 267 330 283 283 15 36 15 356 338 329 325 321 318 316 319 318 314 318 320 321 320 318 312 309 305 298 290 286 282 281
196 209 221 231 241 253 256 176 136 196 244 101 104 117 95 230 237 286 6 354 333 330 331 328 320 311 304 313 321 314 312 316 318 320 319 321 321 313 305 299 294 291 287 284
197 204 211 216 231 244 191 160 196 223 61 68 52 48 10 308 311 316 321 315 318 314 309 309 308 303 304 312 313 308 309 313 322 320 318 318 317 314 313 306 298 294 291 290
209 211 214 214 228 265 181 217 267 357 331 337 3 3 333 295 293 299 298 299 303 306 309 310 307 307 309 313 311 306 309 321 322 319 317 315 315 313 312 307 298 296 294 291
245 241 250 258 257 256 250 253 260 279 293 312 323 325 313 293 291 297 298 298 302 303 305 306 307 305 307 314 316 312 318 323 318 316 316 316 316 315 315 313 306 299 297 294
258 243 251 259 264 270 256 257 264 276 309 319 320 308 293 291 292 290 295 297 297 301 301 301 299 298 302 309 310 317 325 325 318 314 315 316 316 314 314 312 308 305 293 290
242 238 241 252 256 257 270 326 351 340 329 329 318 304 294 277 284 291 291 296 301 301 304 304 301 301 304 310 313 321 327 324 318 315 316 316 314 313 313 315 314 307 301 302
Height
1468 1470 1467 1464 1464 1463 1461 1462 1462 1455 1451 1452 1451 1447 1441 1439 1438 1437 1437 1438 1440 1441 1441 1441 1441 1441 1440 1440 1441 1441 1441 1441 1442 1442 1443 1445 1446 1447 1447 1448 1451 1452 1453 1455
1465 1464 1460 1459 1460 1462 1462 1463 1460 1454 1450 1450 1448 1442 1435 1432 1431 1431 1433 1435 1436 1437 1437 1437 1437 1437 1437 1436 1436 1436 1437 1437 1438 1438 1439 1441 1442 1442 1443 1444 1446 1447 1448 1450
1459 1456 1456 1458 1459 1460 1460 1461 1458 1457 1452 1448 1448 1441 1430 1425 1426 1427 1430 1431 1433 1434 1434 1434 1433 1433 1433 1432 1431 1432 1432 1433 1433 1434 1435 1436 1437 1437 1438 1439 1440 1442 1443 1445
1454 1453 1454 1456 1456 1457 1459 1455 1455 1456 1460 1457 1451 1455 1433 1424 1425 1425 1426 1428 1429 1431 1431 1431 1431 1430 1430 1429 1428 1427 1428 1428 1429 1430 1430 1431 1432 1432 1433 1434 1435 1437 1438 1439
1449 1449 1451 1453 1452 1454 1455 1454 1455 1455 1458 1459 1451 1455 1437 1423 1424 1423 1423 1425 1427 1428 1429 1429 1428 1428 1427 1425 1424 1424 1424 1424 1425 1425 1426 1427 1427 1427 1429 1430 1430 1431 1432 1434
1447 1447 1447 1447 1449 1451 1453 1454 1454 1454 1458 1463 1447 1449 1436 1422 1419 1419 1420 1423 1425 1426 1427 1427 1426 1425 1424 1422 1421 1421 1420 1420 1420 1421 1421 1422 1422 1423 1423 1424 1425 1426 1426 1428
1444 1443 1445 1446 1449 1450 1453 1458 1461 1460 1461 1453 1433 1437 1430 1417 1414 1416 1419 1422 1423 1424 1425 1425 1424 1422 1421 1419 1418 1417 1416 1415 1416 1416 1416 1417 1417 1417 1418 1418 1419 1420 1420 1422
1441 1439 1440 1442 1444 1446 1450 1452 1459 1461 1452 1440 1433 1434 1422 1413 1413 1415 1418 1421 1423 1423 1423 1423 1422 1420 1419 1417 1415 1414 1413 1412 1412 1411 1411 1411 1412 1412 1412 1413 1414 1414 1415 1416
1438 1437 1434 1437 1439 1442 1446 1449 1445 1452 1452 1452 1437 1421 1415 1411 1413 1415 1418 1420 1421 1422 1422 1422 1420 1419 1417 1415 1413 1411 1409 1408 1407 1406 1406 1406 1406 1406 1407 1408 1409 1409 1409 1410
1435 1439 1435 1437 1440 1441 1441 1442 1448 1453 1457 1450 1431 1422 1420 1415 1415 1416 1418 1419 1420 1420 1420 1419 1418 1417 1415 1413 1411 1409 1407 1404 1403 1402 1401 1401 1401 1401 1401 1402 1403 1403 1404 1404
1435 1440 1438 1438 1439 1438 1442 1443 1442 1445 1445 1448 1441 1427 1409 1410 1412 1415 1416 1417 1418 1418 1418 1418 1416 1415 1413 1411 1408 1406 1404 1401 1399 1398 1397 1397 1396 1396 1396 1396 1397 1398 1398 1399
1434 1438 1438 1434 1431 1431 1433 1434 1439 1448 1446 1441 1442 1430 1407 1408 1410 1412 1415 1416 1417 1417 1417 1416 1414 1412 1410 1408 1405 1403 1400 1398 1396 1395 1394 1393 1392 1392 1392 1391 1392 1392 1393 1393
1434 1439 1439 1434 1437 1435 1434 1432 1433 1437 1440 1441 1440 1428 1409 1409 1410 1412 1414 1415 1415 1415 1415 1413 1412 1410 1408 1405 1403 1400 1397 1395 1393 1392 1390 1389 1388 1388 1388 1387 1386 1387 1387 1387
1431 1435 1434 1429 1425 1431 1434 1433 1432 1436 1440 1437 1429 1420 1412 1411 1411 1412 1413 1413 1413 1413 1412 1411 1410 1408 1406 1403 1401 1398 1395 1393 1391 1389 1388 1386 1385 1385 1384 1383 1382 1382 1382 1381
1431 1433 1430 1425 1422 1424 1426 1427 1428 1430 1429 1430 1420 1416 1410 1409 1410 1410 1411 1411 1411 1411 1410 1409 1407 1406 1404 1401 1398 1395 1393 1390 1388 1387 1385 1383 1383 1381 1380 1379 1378 1377 1377 1376
1431 1431 1429 1426 1420 1421 1421 1419 1419 1420 1419 1418 1416 1412 1405 1407 1407 1408 1408 1408 1408 1408 1407 1406 1405 1403 1402 1399 1396 1393 1391 1388 1386 1384 1382 1381 1380 1378 1376 1375 1374 1373 1372 1371
1429 1431 1430 1425 1420 1420 1419 1409 1409 1410 1408 1410 1411 1405 1402 1404 1405 1405 1405 1406 1405 1405 1405 1404 1403 1401 1399 1397 1394 1391 1389 1387 1384 1382 1380 1378 1376 1374 1372 1371 1369 1368 1367 1367
1427 1428 1428 1425 1424 1426 1405 1395 1396 1398 1398 1399 1399 1398 1399 1400 1401 1402 1403 1403 1403 1402 1402 1401 1400 1399 1397 1394 1392 1389 1386 1384 1382 1379 1377 1375 1373 1371 1369 1367 1365 1364 1363 1362
1418 1423 1424 1423 1420 1410 1399 1394 1393 1396 1395 1393 1394 1395 1396 1397 1398 1399 1400 1400 1400 1400 1399 1398 1397 1396 1394 1392 1389 1387 1384 1382 1379 1377 1374 1372 1370 1368 1365 1363 1361 1360 1359 1357
1413 1417 1421 1418 1416 1409 1395 1391 1389 1393 1397 1390 1390 1392 1393 1395 1400 1399 1398 1398 1398 1397 1397 1395 1394 1393 1391 1389 1387 1384 1381 1379 1376 1374 1372 1370 1367 1364 1362 1360 1358 1356 1354 1352
1412 1413 1414 1412 1410 1401 1391 1389 1391 1401 1398 1390 1389 1391 1392 1394 1397 1397 1396 1396 1396 1395 1394 1393 1392 1390 1388 1386 1384 1381 1379 1376 1374 1372 1369 1366 1363 1361 1358 1356 1354 1352 1350 1348
1405 1407 1407 1406 1406 1401 1389 1390 1392 1392 1389 1389 1389 1390 1391 1392 1393 1394 1394 1394 1393 1392 1391 1390 1389 1387 1385 1383 1381 1378 1376 1374 1371 1368 1365 1362 1359 1357 1355 1352 1350 1348 1346 1344
1396 1396 1396 1397 1395 1389 1387 1387 1387 1387 1388 1388 1389 1390 1390 1391 1391 1391 1391 1391 1390 1389 1388 1387 1385 1383 1381 1380 1378 1375 1373 1370 1368 1365 1362 1359 1356 1353 1351 1348 1345 1343 1341 1339
1390 1389 1390 1390 1387 1385 1385 1385 1386 1386 1387 1387 1387 1388 1388 1389 1389 1389 1388 1388 1387 1386 1385 1383 1382 1379 1377 1376 1374 1372 1369 1367 1364 1361 1358 1355 1352 1349 1346 1344 1341 1339 1337 1335
1387 1388 1388 1387 1384 1383 1383 1383 1384 1384 1384 1384 1385 1385 1386 1386 1385 1385 1385 1384 1383 1382 1381 1380 1378 1376 1374 1372 1370 1368 1365 1363 1360 1357 1354 1351 1348 1345 1342 1339 1337 1335 1333 1332
1383 1384 1385 1383 1381 1381 1381 1381 1381 1381 1381 1382 1382 1382 1382 1382 1382 1382 1381 1380 1379 1378 1377 1375 1374 1372 1370 1368 1366 1364 1361 1359 1356 1353 1350 1347 1345 1342 1339 1335 1332 1330 1329 1327